[[{"header":{"parameterUnit":"m.s-1","parameterCategory":1,"la1":30.2991,"la2":30.254,"lo1":-89.0895,"lo2":-89.0444,"dy":0.0017,"dx":0.0017,"nx":28,"ny":28,"refTime":"2026-02-11T03:00:00:Z","depth":0,"parameterNumber":2,"parameterNumberName":"U-component_of_WINDS"},"data":[0,0,0,0,0,0,0,0,0,0,0,0,0,0,0,0,0,0,0,0,0,0,0,0,0,0,0,0,0,0,0,0,0,0,0,0,0,0,0,0,0,0,0,0,0,0,0,0,0,0,0,0,0,0,0,0,0,0,-1.3338,-1.3338,0,-1.3298,-1.3298,-1.3297,-1.3224,-1.3222,-1.3221,-1.3219,-1.3181,-1.3181,-1.3182,0,0,0,0,0,0,0,0,0,0,0,0,0,-1.3354,-1.3354,-1.3339,-1.3338,-1.3338,-1.3298,-1.3298,-1.3297,-1.3224,-1.3222,-1.322,-1.3219,-1.3181,-1.3181,-1.3182,0,0,0,0,0,0,0,0,0,0,0,0,0,-1.3334,-1.3354,-1.3339,-1.3296,-1.3292,-1.3299,-1.3298,-1.3297,-1.3224,-1.3222,-1.322,-1.3218,-1.3181,-1.3181,-1.3182,-1.3228,0,0,-1.3183,-1.3183,0,0,0,0,0,0,0,0,-1.3336,-1.3334,-1.3303,-1.3299,-1.3294,-1.3264,-1.3289,-1.3274,-1.3225,-1.325,-1.3219,-1.3217,-1.321,-1.3208,-1.3206,-1.3226,-1.3224,-1.3183,-1.3183,-1.3184,-1.3184,0,0,0,0,0,0,0,-1.3337,-1.3335,-1.3323,-1.3302,-1.3297,-1.328,-1.3275,-1.3286,-1.3243,-1.3248,-1.3242,-1.3238,-1.3208,-1.3205,-1.3204,-1.3224,-1.3183,-1.3184,-1.3184,-1.3184,-1.3279,-1.3281,0,0,0,0,0,0,-1.3344,-1.3337,-1.3324,-1.3321,-1.331,-1.3281,-1.3276,-1.3276,-1.3242,-1.3235,-1.324,-1.3235,-1.3206,-1.3204,-1.3203,-1.3253,-1.3184,-1.3184,-1.3184,-1.3277,-1.3279,-1.3282,0,0,0,0,0,0,-1.3345,-1.3344,-1.3326,-1.3328,-1.3324,-1.3283,-1.3284,-1.3276,-1.3273,-1.3237,-1.3229,-1.3245,-1.3204,-1.3202,-1.3222,-1.325,-1.3184,-1.3185,-1.3274,-1.3278,-1.3281,-1.3354,0,0,0,0,0,0,-1.3346,-1.3344,-1.3361,-1.3329,-1.3324,-1.3344,-1.3286,-1.3277,-1.3274,-1.3267,-1.324,-1.3233,-1.3202,-1.3221,-1.3222,-1.325,-1.3185,-1.3271,-1.3276,-1.328,-1.3349,-1.336,-1.3369,0,0,0,0,0,-1.3346,-1.3384,-1.3362,-1.3361,-1.3343,-1.3346,-1.3344,-1.3306,-1.3277,-1.3293,-1.327,-1.3234,-1.3248,-1.3224,-1.3224,-1.3253,-1.3269,-1.3274,-1.3279,-1.3345,-1.3358,-1.3369,0,0,0,0,0,0,-1.3421,-1.3379,-1.3354,-1.3382,-1.3368,-1.3334,-1.3353,-1.3322,-1.3317,-1.331,-1.3265,-1.326,-1.3285,-1.3271,-1.3245,-1.3295,-1.3253,-1.3258,-1.3303,-1.3315,-1.3325,-1.3326,-1.3185,0,0,0,0,0,-1.3441,-1.3446,-1.3409,-1.3437,-1.3432,-1.3394,-1.3394,-1.3366,-1.3351,-1.3345,-1.3322,-1.331,-1.3311,-1.3312,-1.3312,-1.3348,-1.334,-1.3368,-1.3378,-1.3386,-1.3391,-1.3408,-1.3419,-1.3298,-1.3298,-1.3298,0,0,-1.3481,-1.3459,-1.3465,-1.3452,-1.3438,-1.3444,-1.3389,-1.3399,-1.3403,-1.3346,-1.3362,-1.3347,-1.3329,-1.3357,-1.3368,-1.3346,-1.3423,-1.3393,-1.3399,-1.3399,-1.3414,-1.3426,-1.3436,-1.3302,-1.3301,-1.3301,0,0,-1.3558,-1.3542,-1.3563,-1.3551,-1.353,-1.3505,-1.351,-1.3481,-1.3467,-1.3483,-1.344,-1.3446,-1.345,-1.3438,-1.3433,-1.3508,-1.3474,-1.3509,-1.356,-1.3577,-1.3587,-1.3595,-1.362,-1.363,-1.3514,-1.3514,-1.3514,0,-1.3611,-1.3618,-1.3578,-1.359,-1.3585,-1.3534,-1.3555,-1.3545,-1.3526,-1.3525,-1.35,-1.3503,-1.3488,-1.3512,-1.353,-1.3529,-1.3533,-1.351,-1.3589,-1.3596,-1.3603,-1.3627,-1.3636,-1.3518,-1.3518,-1.3518,-1.3517,0,-1.3684,-1.369,-1.371,-1.3691,-1.3689,-1.3706,-1.3669,-1.3673,-1.3646,-1.3624,-1.3641,-1.3621,-1.3615,-1.3619,-1.3594,-1.364,-1.3627,-1.3597,-1.3553,-1.362,-1.3641,-1.365,-1.3524,-1.3523,-1.3522,-1.3521,0,0,-1.3804,-1.3764,-1.3772,-1.3762,-1.3737,-1.3741,-1.3756,-1.3749,-1.3752,-1.3742,-1.3753,-1.3758,-1.3729,-1.3724,-1.3697,-1.3713,-1.3771,-1.368,-1.3679,-1.3696,-1.3819,-1.3841,-1.3852,-1.375,-1.3752,-1.3753,-1.382,0,-1.3874,-1.3895,-1.386,-1.389,-1.3895,-1.3847,-1.386,-1.3846,-1.3827,-1.3829,-1.3807,-1.381,-1.3774,-1.377,-1.3784,-1.3761,-1.3795,-1.3756,-1.376,-1.376,-1.3763,-1.3863,-1.3885,-1.3949,-1.3828,-1.383,-1.3831,0,-1.3957,-1.3949,-1.3979,-1.3951,-1.3952,-1.3964,-1.3955,-1.3958,-1.3942,-1.3926,-1.3921,-1.3889,-1.3903,-1.3862,-1.388,-1.3855,-1.3855,-1.3844,-1.3846,-1.3843,-1.3798,-1.386,-1.3969,-1.3978,-1.3844,-1.3843,-1.3842,0,-1.4039,-1.4037,-1.4054,-1.4048,-1.4017,-1.4026,-1.4014,-1.3995,-1.3994,-1.3987,-1.3985,-1.398,-1.3977,-1.3975,-1.3943,-1.3917,-1.3965,-1.3922,-1.3952,-1.3953,-1.3962,-1.3961,-1.407,-1.3966,-1.3966,-1.3966,-1.3966,0,-1.4119,-1.4139,-1.409,-1.4101,-1.4122,-1.4083,-1.4105,-1.4088,-1.4072,-1.4079,-1.4039,-1.4046,-1.4005,-1.4009,-1.3984,-1.4002,-1.4002,-1.399,-1.3983,-1.3992,-1.3993,-1.3989,-1.3983,-1.3968,-1.3968,-1.3967,-1.3967,0,-1.4213,-1.4182,-1.4197,-1.4166,-1.4159,-1.4176,-1.415,-1.4158,-1.4137,-1.4146,-1.4146,-1.4112,-1.4114,-1.4083,-1.408,-1.4063,-1.4091,-1.4078,-1.4096,-1.4091,-1.4122,-1.4118,-1.423,-1.4242,-1.4133,-1.4134,-1.4135,0,-1.4265,-1.4279,-1.4249,-1.4251,-1.424,-1.4243,-1.424,-1.4203,-1.4202,-1.4186,-1.4197,-1.4195,-1.4191,-1.4197,-1.4173,-1.417,-1.4154,-1.4194,-1.4154,-1.4162,-1.4153,-1.4151,-1.4152,-1.4201,-1.4203,-1.4204,-1.4205,0,-1.436,-1.4343,-1.4341,-1.4333,-1.4332,-1.4324,-1.4314,-1.4318,-1.4278,-1.4279,-1.428,-1.4278,-1.4273,-1.4272,-1.4265,-1.4253,-1.4222,-1.4218,-1.4224,-1.4233,-1.4242,-1.4235,-1.4117,-1.4215,-1.4214,-1.4213,-1.4213,-1.4212,-1.4433,-1.4442,-1.4423,-1.4422,-1.441,-1.4402,-1.4408,-1.4388,-1.4387,-1.438,-1.4359,-1.4363,-1.4348,-1.4334,-1.4325,-1.4329,-1.431,-1.4319,-1.4321,-1.4324,-1.4328,-1.4244,-1.4328,-1.4327,-1.4327,-1.4327,-1.4327,0,-1.4523,-1.4509,-1.4508,-1.4495,-1.4494,-1.4465,-1.4453,-1.4455,-1.4458,-1.4446,-1.4443,-1.4445,-1.4444,-1.442,-1.4416,-1.4424,-1.4409,-1.4424,-1.4422,-1.4419,-1.4347,-1.4341,-1.4435,-1.4435,-1.4435,-1.4435,-1.4435,-1.4435,-1.457,-1.4585,-1.4566,-1.4575,-1.4561,-1.4564,-1.4559,-1.4552,-1.4541,-1.4544,-1.4542,-1.4527,-1.451,-1.4505,-1.4503,-1.4496,-1.4496,-1.4514,-1.4503,-1.4435,-1.4424,-1.4414,-1.4408,-1.4515,-1.4515,-1.4574,-1.4575,-1.4575]},{"header":{"parameterUnit":"m.s-1","parameterCategory":1,"la1":30.2991,"la2":30.254,"lo1":-89.0895,"lo2":-89.0444,"dy":0.0017,"dx":0.0017,"nx":28,"ny":28,"refTime":"2026-02-11T03:00:00:Z","depth":0,"parameterNumber":3,"parameterNumberName":"V-component_of_WINDS"},"data":[0,0,0,0,0,0,0,0,0,0,0,0,0,0,0,0,0,0,0,0,0,0,0,0,0,0,0,0,0,0,0,0,0,0,0,0,0,0,0,0,0,0,0,0,0,0,0,0,0,0,0,0,0,0,0,0,0,0,2.7513,2.7512,0,2.7496,2.7496,2.7496,2.7547,2.7549,2.755,2.7552,2.7531,2.7529,2.7527,0,0,0,0,0,0,0,0,0,0,0,0,0,2.7585,2.7583,2.7513,2.7512,2.7512,2.7496,2.7496,2.7496,2.7547,2.7549,2.7551,2.7553,2.7532,2.7529,2.7527,0,0,0,0,0,0,0,0,0,0,0,0,0,2.7559,2.7583,2.7513,2.7536,2.7538,2.7496,2.7496,2.7496,2.7547,2.7549,2.7551,2.7553,2.7532,2.7529,2.7526,2.7461,0,0,2.7517,2.7516,0,0,0,0,0,0,0,0,2.7561,2.7557,2.7533,2.7534,2.7536,2.7526,2.7514,2.7484,2.7546,2.7543,2.7552,2.7555,2.7527,2.7525,2.7516,2.746,2.7459,2.7517,2.7515,2.7514,2.7513,0,0,0,0,0,0,0,2.7562,2.7558,2.7506,2.7532,2.7534,2.7546,2.7545,2.7509,2.7522,2.7543,2.7547,2.7545,2.7529,2.7519,2.7516,2.7458,2.7517,2.7514,2.7512,2.7511,2.7349,2.7347,0,0,0,0,0,0,2.7562,2.7559,2.7507,2.7506,2.7555,2.7543,2.7542,2.7527,2.7523,2.7524,2.7543,2.7547,2.7523,2.752,2.7516,2.744,2.7514,2.7511,2.7509,2.7351,2.7348,2.7346,0,0,0,0,0,0,2.7563,2.7557,2.7507,2.7533,2.7528,2.7539,2.7522,2.7525,2.7516,2.7522,2.7524,2.7531,2.7525,2.752,2.7475,2.744,2.751,2.7507,2.7354,2.7351,2.7347,2.7287,0,0,0,0,0,0,2.7565,2.7557,2.7532,2.7532,2.7526,2.7467,2.752,2.7523,2.7511,2.7517,2.7512,2.7513,2.7526,2.7479,2.7472,2.7437,2.7504,2.7358,2.7353,2.7348,2.7292,2.7282,2.7273,0,0,0,0,0,2.7567,2.7514,2.7531,2.7524,2.7496,2.7465,2.7461,2.7479,2.7508,2.7484,2.7488,2.7513,2.7445,2.7474,2.7466,2.743,2.736,2.7354,2.7349,2.7296,2.7284,2.7273,0,0,0,0,0,0,2.7508,2.7515,2.7533,2.7479,2.7471,2.7474,2.7443,2.7465,2.7447,2.7453,2.7475,2.7473,2.7424,2.7422,2.7455,2.7367,2.7407,2.74,2.737,2.7358,2.7349,2.735,2.7502,0,0,0,0,0,2.7489,2.7464,2.7471,2.7422,2.7418,2.7431,2.7418,2.7433,2.7425,2.7422,2.7422,2.7413,2.739,2.7374,2.7352,2.7292,2.7292,2.7263,2.7254,2.7246,2.7239,2.7209,2.7197,2.7327,2.7327,2.7328,0,0,2.7448,2.7449,2.7432,2.7411,2.7407,2.738,2.7428,2.7397,2.7377,2.7416,2.7375,2.7375,2.7366,2.7313,2.729,2.731,2.7203,2.7239,2.7232,2.723,2.7202,2.7189,2.7178,2.7324,2.7324,2.7325,0,0,2.7362,2.736,2.732,2.7316,2.731,2.7319,2.7309,2.7309,2.7312,2.727,2.73,2.7276,2.7235,2.7228,2.7219,2.7132,2.7155,2.7124,2.7074,2.7044,2.7034,2.7025,2.6995,2.6984,2.7118,2.7118,2.7117,0,2.7312,2.7274,2.7296,2.7265,2.7255,2.7291,2.7251,2.7245,2.7232,2.7224,2.7247,2.7198,2.7194,2.7142,2.7121,2.7112,2.7102,2.7125,2.7034,2.7025,2.7017,2.6988,2.6977,2.7114,2.7114,2.7115,2.7115,0,2.7214,2.7188,2.7156,2.7145,2.7131,2.7095,2.7112,2.7095,2.7111,2.7118,2.7077,2.7074,2.7054,2.7042,2.7056,2.6992,2.7005,2.703,2.7071,2.7,2.6974,2.6963,2.7109,2.711,2.7111,2.7112,0,0,2.7089,2.7092,2.708,2.7076,2.7073,2.7053,2.7018,2.7001,2.6987,2.6976,2.6949,2.6914,2.6939,2.6929,2.6943,2.6916,2.685,2.6946,2.6946,2.6929,2.678,2.6761,2.6748,2.6865,2.6863,2.6861,2.6781,0,2.7005,2.6949,2.6968,2.691,2.6887,2.6922,2.6892,2.6887,2.6893,2.6873,2.6879,2.6855,2.6888,2.6883,2.6858,2.6863,2.682,2.6869,2.6839,2.6838,2.6841,2.6734,2.6714,2.6638,2.6771,2.6769,2.6768,0,2.6899,2.6887,2.6828,2.6831,2.6822,2.6795,2.6781,2.6762,2.6756,2.6763,2.6752,2.6773,2.6739,2.678,2.6735,2.6768,2.6757,2.6757,2.6755,2.6753,2.6799,2.673,2.6614,2.6603,2.6751,2.6753,2.6754,0,2.6815,2.6784,2.6745,2.674,2.6742,2.6723,2.6723,2.672,2.6709,2.6696,2.6689,2.6672,2.6663,2.6649,2.6664,2.6693,2.6617,2.6659,2.6621,2.6621,2.6604,2.6605,2.6485,2.6595,2.6596,2.6596,2.6596,0,2.672,2.6682,2.6708,2.6684,2.6643,2.6666,2.6625,2.6628,2.6626,2.6603,2.6631,2.6609,2.663,2.6609,2.6621,2.6582,2.6577,2.6582,2.6585,2.6579,2.6579,2.6573,2.6579,2.6593,2.6593,2.6594,2.6595,0,2.6619,2.6635,2.6595,2.6601,2.6602,2.6572,2.6577,2.6554,2.6563,2.6534,2.6528,2.6541,2.6519,2.6533,2.6509,2.6517,2.6467,2.6477,2.6469,2.6472,2.6435,2.6438,2.6307,2.6292,2.6411,2.641,2.6409,0,2.6558,2.653,2.6534,2.6522,2.6521,2.65,2.6489,2.6511,2.6498,2.6492,2.647,2.6451,2.6436,2.6399,2.6405,2.6388,2.6399,2.6354,2.6396,2.6392,2.6399,2.6401,2.6399,2.6345,2.6344,2.6343,2.6342,0,2.6447,2.6457,2.6442,2.6429,2.6416,2.6407,2.6399,2.6387,2.6409,2.6394,2.6372,2.6361,2.6339,2.6319,2.6305,2.6304,2.6326,2.6329,2.6319,2.6313,2.6311,2.6313,2.6447,2.6332,2.6333,2.6333,2.6334,2.6334,2.6365,2.6343,2.6344,2.6326,2.6323,2.6316,2.6297,2.6304,2.6287,2.6271,2.6285,2.6259,2.6256,2.624,2.6236,2.6216,2.6234,2.622,2.6216,2.6213,2.6208,2.6313,2.6213,2.6213,2.6214,2.6214,2.6214,0,2.6258,2.626,2.6244,2.6234,2.622,2.6244,2.6238,2.6225,2.6202,2.6198,2.6184,2.616,2.6142,2.6148,2.6131,2.6114,2.6124,2.6109,2.6111,2.6111,2.6192,2.6203,2.6102,2.6102,2.6102,2.6102,2.6102,2.6102,2.62,2.6165,2.6175,2.6139,2.6141,2.6118,2.6112,2.6106,2.6103,2.6076,2.6061,2.6066,2.6066,2.605,2.6035,2.6037,2.603,2.6011,2.6017,2.6094,2.6105,2.6115,2.6125,2.6009,2.6009,2.5937,2.5937,2.5936]}]]